Location: Igon
(43.1667°N, 0.2333°W)
Time: 14:52:49
(UTC+00:00)

Cosmos 2263 Rocket - Pass Details

Date: 29 November 2020
Orbit: 823 x 849 km, 71.0° (Epoch: 23 January)

Event Time Altitude Azimuth Distance (km) Brightness Sun altitude
Exits shadow 06:24:47 10° 304° (NW) 2,513 4.0 -8.4°
Reaches altitude 10° 06:25:14 10° 309° (NW) 2,475 4.0 -8.4°
Maximum altitude 06:26:26 11° 321° (NW) 2,432 4.1 -8.2°
Drops below altitude 10° 06:27:39 10° 334° (NNW) 2,479 4.2 -8.0°
Sets 06:32:39 0° 12° (NNE) 3,422 5.2 -7.1°
